Time,TemperatureF,DewpointF,PressureIn,WindDirection,WindDirectionDegrees,WindSpeedMPH,WindSpeedGustMPH,Humidity,HourlyPrecipIn,Conditions,Clouds,dailyrainin,SoftwareType,DateUTC
2013-08-09 01:22:00,57.0,-99.9,-100.00,North,-999,-999.0,-999.0,-999,-99.99,,,0.00,,2013-08-09 07:22:00,
2013-08-09 01:33:00,57.0,-99.9,-100.00,North,-999,-999.0,-999.0,-999,-99.99,,,0.00,,2013-08-09 07:33:00,
2013-08-09 01:43:00,57.0,-99.9,-100.00,North,-999,-999.0,-999.0,-999,-99.99,,,0.00,,2013-08-09 07:43:00,
2013-08-09 02:22:00,54.0,-99.9,-100.00,North,-999,-999.0,-999.0,-999,0.00,,,0.00,,2013-08-09 08:22:00,
2013-08-09 02:32:00,54.0,-99.9,-100.00,North,-999,-999.0,-999.0,-999,0.00,,,0.00,,2013-08-09 08:32:00,
2013-08-09 02:43:00,54.0,-99.9,-100.00,North,-999,-999.0,-999.0,-999,0.00,,,0.00,,2013-08-09 08:43:00,
2013-08-09 03:22:00,52.0,-99.9,-100.00,North,-999,-999.0,-999.0,-999,0.00,,,-99.99,,2013-08-09 09:22:00,
2013-08-09 03:32:00,52.0,-99.9,-100.00,North,-999,-999.0,-999.0,-999,0.00,,,-99.99,,2013-08-09 09:32:00,
2013-08-09 03:43:00,52.0,-99.9,-100.00,North,-999,-999.0,-999.0,-999,0.00,,,-99.99,,2013-08-09 09:43:00,
2013-08-09 04:22:00,50.0,-99.9,-100.00,North,-999,-999.0,-999.0,-999,0.00,,,0.00,,2013-08-09 10:22:00,
2013-08-09 04:32:00,50.0,-99.9,-100.00,North,-999,-999.0,-999.0,-999,0.00,,,0.00,,2013-08-09 10:32:00,
2013-08-09 04:43:00,50.0,-99.9,-100.00,North,-999,-999.0,-999.0,-999,0.00,,,0.00,,2013-08-09 10:43:00,
2013-08-09 05:22:00,52.0,-99.9,-100.00,North,-999,-999.0,-999.0,-999,0.00,,,0.00,,2013-08-09 11:22:00,
2013-08-09 05:33:00,52.0,-99.9,-100.00,North,-999,-999.0,-999.0,-999,0.00,,,0.00,,2013-08-09 11:33:00,
2013-08-09 05:43:00,52.0,-99.9,-100.00,North,-999,-999.0,-999.0,-999,0.00,,,0.00,,2013-08-09 11:43:00,
2013-08-09 06:22:00,52.0,-99.9,-100.00,North,-999,-999.0,-999.0,-999,0.00,,,0.00,,2013-08-09 12:22:00,
2013-08-09 06:32:00,52.0,-99.9,-100.00,North,-999,-999.0,-999.0,-999,0.00,,,0.00,,2013-08-09 12:32:00,
2013-08-09 06:43:00,52.0,-99.9,-100.00,North,-999,-999.0,-999.0,-999,0.00,,,0.00,,2013-08-09 12:43:00,
2013-08-09 07:23:00,53.0,-99.9,-100.00,North,-999,-999.0,-999.0,-999,0.00,,,0.00,,2013-08-09 13:23:00,
2013-08-09 07:33:00,53.0,-99.9,-100.00,North,-999,-999.0,-999.0,-999,0.00,,,0.00,,2013-08-09 13:33:00,
2013-08-09 07:43:00,53.0,-99.9,-100.00,North,-999,-999.0,-999.0,-999,0.00,,,0.00,,2013-08-09 13:43:00,
2013-08-09 08:22:00,53.0,-99.9,-100.00,North,-999,-999.0,-999.0,-999,0.01,,,0.01,,2013-08-09 14:22:00,
2013-08-09 08:33:00,53.0,-99.9,-100.00,North,-999,-999.0,-999.0,-999,0.01,,,0.01,,2013-08-09 14:33:00,
2013-08-09 08:43:00,53.0,-99.9,-100.00,North,-999,-999.0,-999.0,-999,0.01,,,0.01,,2013-08-09 14:43:00,
2013-08-09 09:22:00,53.0,-99.9,-100.00,North,-999,-999.0,-999.0,-999,0.04,,,0.05,,2013-08-09 15:22:00,
2013-08-09 09:33:00,53.0,-99.9,-100.00,North,-999,-999.0,-999.0,-999,0.04,,,0.05,,2013-08-09 15:33:00,
2013-08-09 09:44:00,53.0,-99.9,-100.00,North,-999,-999.0,-999.0,-999,0.04,,,0.05,,2013-08-09 15:44:00,
2013-08-09 10:22:00,58.0,-99.9,-100.00,North,-999,-999.0,-999.0,-999,0.00,,,0.05,,2013-08-09 16:22:00,
2013-08-09 10:32:00,58.0,-99.9,-100.00,North,-999,-999.0,-999.0,-999,0.00,,,0.05,,2013-08-09 16:32:00,
2013-08-09 10:43:00,58.0,-99.9,-100.00,North,-999,-999.0,-999.0,-999,0.00,,,0.05,,2013-08-09 16:43:00,
2013-08-09 11:22:00,63.0,-99.9,-100.00,North,-999,-999.0,-999.0,-999,0.00,,,0.05,,2013-08-09 17:22:00,
2013-08-09 11:33:00,63.0,-99.9,-100.00,North,-999,-999.0,-999.0,-999,0.00,,,0.05,,2013-08-09 17:33:00,
2013-08-09 11:43:00,63.0,-99.9,-100.00,North,-999,-999.0,-999.0,-999,0.00,,,0.05,,2013-08-09 17:43:00,
2013-08-09 12:22:00,67.0,-99.9,-100.00,North,-999,-999.0,-999.0,-999,0.00,,,0.06,,2013-08-09 18:22:00,
2013-08-09 12:32:00,67.0,-99.9,-100.00,North,-999,-999.0,-999.0,-999,0.00,,,0.06,,2013-08-09 18:32:00,
2013-08-09 12:43:00,67.0,-99.9,-100.00,North,-999,-999.0,-999.0,-999,0.00,,,0.06,,2013-08-09 18:43:00,
2013-08-09 13:22:00,73.0,-99.9,-100.00,North,-999,-999.0,-999.0,-999,-99.99,,,0.05,,2013-08-09 19:22:00,
2013-08-09 13:32:00,73.0,-99.9,-100.00,North,-999,-999.0,-999.0,-999,-99.99,,,0.05,,2013-08-09 19:32:00,
2013-08-09 13:43:00,73.0,-99.9,-100.00,North,-999,-999.0,-999.0,-999,-99.99,,,0.05,,2013-08-09 19:43:00,
2013-08-09 14:22:00,74.0,-99.9,-100.00,North,-999,-999.0,-999.0,-999,0.00,,,0.05,,2013-08-09 20:22:00,
2013-08-09 14:32:00,74.0,-99.9,-100.00,North,-999,-999.0,-999.0,-999,0.00,,,0.05,,2013-08-09 20:32:00,
2013-08-09 14:43:00,74.0,-99.9,-100.00,North,-999,-999.0,-999.0,-999,0.00,,,0.05,,2013-08-09 20:43:00,
2013-08-09 15:22:00,78.0,-99.9,-100.00,North,-999,-999.0,-999.0,-999,0.00,,,0.05,,2013-08-09 21:22:00,
2013-08-09 15:33:00,78.0,-99.9,-100.00,North,-999,-999.0,-999.0,-999,0.00,,,0.05,,2013-08-09 21:33:00,
2013-08-09 15:43:00,78.0,-99.9,-100.00,North,-999,-999.0,-999.0,-999,0.00,,,0.05,,2013-08-09 21:43:00,
2013-08-09 16:22:00,80.0,-99.9,-100.00,North,-999,-999.0,-999.0,-999,0.00,,,0.05,,2013-08-09 22:22:00,
2013-08-09 16:32:00,80.0,-99.9,-100.00,North,-999,-999.0,-999.0,-999,0.00,,,0.05,,2013-08-09 22:32:00,
2013-08-09 16:43:00,80.0,-99.9,-100.00,North,-999,-999.0,-999.0,-999,0.00,,,0.05,,2013-08-09 22:43:00,
2013-08-09 17:22:00,75.0,-99.9,-100.00,North,-999,-999.0,-999.0,-999,0.00,,,0.05,,2013-08-09 23:22:00,
2013-08-09 17:32:00,75.0,-99.9,-100.00,North,-999,-999.0,-999.0,-999,0.00,,,0.05,,2013-08-09 23:32:00,
2013-08-09 17:43:00,75.0,-99.9,-100.00,North,-999,-999.0,-999.0,-999,0.00,,,0.05,,2013-08-09 23:43:00,
2013-08-09 18:22:00,76.0,-99.9,-100.00,North,-999,-999.0,-999.0,-999,0.01,,,0.06,,2013-08-10 00:22:00,
2013-08-09 18:33:00,76.0,-99.9,-100.00,North,-999,-999.0,-999.0,-999,0.01,,,0.06,,2013-08-10 00:33:00,
2013-08-09 18:43:00,76.0,-99.9,-100.00,North,-999,-999.0,-999.0,-999,0.01,,,0.06,,2013-08-10 00:43:00,
2013-08-09 19:22:00,75.0,-99.9,-100.00,North,-999,-999.0,-999.0,-999,0.00,,,-99.99,,2013-08-10 01:22:00,
2013-08-09 19:32:00,75.0,-99.9,-100.00,North,-999,-999.0,-999.0,-999,0.00,,,-99.99,,2013-08-10 01:32:00,
2013-08-09 19:43:00,75.0,-99.9,-100.00,North,-999,-999.0,-999.0,-999,0.00,,,-99.99,,2013-08-10 01:43:00,
2013-08-09 20:11:00,73.0,-99.9,-100.00,North,-999,-999.0,-999.0,-999,0.00,,,0.05,,2013-08-10 02:11:00,
2013-08-09 20:22:00,73.0,-99.9,-100.00,North,-999,-999.0,-999.0,-999,0.00,,,0.05,,2013-08-10 02:22:00,
2013-08-09 20:32:00,73.0,-99.9,-100.00,North,-999,-999.0,-999.0,-999,0.00,,,0.05,,2013-08-10 02:32:00,
2013-08-09 20:42:00,73.0,-99.9,-100.00,North,-999,-999.0,-999.0,-999,0.00,,,0.05,,2013-08-10 02:42:00,
2013-08-09 21:11:00,68.0,-99.9,-100.00,North,-999,-999.0,-999.0,-999,0.00,,,0.05,,2013-08-10 03:11:00,
2013-08-09 21:22:00,68.0,-99.9,-100.00,North,-999,-999.0,-999.0,-999,0.00,,,0.05,,2013-08-10 03:22:00,
2013-08-09 21:32:00,68.0,-99.9,-100.00,North,-999,-999.0,-999.0,-999,0.00,,,0.05,,2013-08-10 03:32:00,
2013-08-09 21:42:00,68.0,-99.9,-100.00,North,-999,-999.0,-999.0,-999,0.00,,,0.05,,2013-08-10 03:42:00,
2013-08-09 22:12:00,64.0,-99.9,-100.00,North,-999,-999.0,-999.0,-999,0.00,,,0.05,,2013-08-10 04:12:00,
2013-08-09 22:22:00,64.0,-99.9,-100.00,North,-999,-999.0,-999.0,-999,0.00,,,0.05,,2013-08-10 04:22:00,
2013-08-09 22:32:00,64.0,-99.9,-100.00,North,-999,-999.0,-999.0,-999,0.00,,,0.05,,2013-08-10 04:32:00,
2013-08-09 22:43:00,64.0,-99.9,-100.00,North,-999,-999.0,-999.0,-999,0.00,,,0.05,,2013-08-10 04:43:00,
2013-08-09 23:22:00,65.0,-99.9,-100.00,North,-999,-999.0,-999.0,-999,0.00,,,0.05,,2013-08-10 05:22:00,
2013-08-09 23:32:00,65.0,-99.9,-100.00,North,-999,-999.0,-999.0,-999,0.00,,,0.05,,2013-08-10 05:32:00,
2013-08-09 23:43:00,65.0,-99.9,-100.00,North,-999,-999.0,-999.0,-999,0.00,,,0.05,,2013-08-10 05:43:00,